Regional Weather Roundup
Issued by NWS Charleston, WV

Home | Current Version | Previous Version | Graphics & Text | Print | Product List | Glossary On
Versions: 1 2 3 4 5 6 7 8 9 10 11 12 13 14 15 16 17 18 19 20 21 22 23 24 25 26 27 28 29 30 31 32 33 34 35 36 37 38 39 40 41 42 43 44 45 46 47 48 49 50
000
ASUS41 KRLX 011310
RWRRLX
West Virginia Regional Weather Roundup
National Weather Service Charleston WV
900 AM EDT WED OCT 01 2014

Note: "fair" indicates few or no clouds below 12,000 feet with no
significant weather and/or obstructions to visibility.

WVZ003-011400-
Northern Panhandle of West Virginia

CITY           SKY/WX    TMP DP  RH WIND       PRES   REMARKS
WHEELING       CLOUDY    58  54  86 E5        30.02R
$$

WVZ009-011400-
Northwest West Virginia

CITY           SKY/WX    TMP DP  RH WIND       PRES   REMARKS
PARKERSBURG    CLOUDY    59  56  89 CALM      30.04R FOG
$$

WVZ006-011400-
Western West Virginia

CITY           SKY/WX    TMP DP  RH WIND       PRES   REMARKS
HUNTINGTON     CLOUDY    60  57  89 CALM      30.01R
$$

WVZ015-011400-
West Central West Virginia

CITY           SKY/WX    TMP DP  RH WIND       PRES   REMARKS
CHARLESTON     CLOUDY    62  58  86 CALM      30.01R FOG
$$

WVZ031-011400-
North Central West Virginia

CITY           SKY/WX    TMP DP  RH WIND       PRES   REMARKS
CLARKSBURG     FOG       56  56 100 N5        30.02R VSB 1/2
MORGANTOWN     FOG       56  54  93 CALM      30.04R VSB 1/4
$$

WVZ035-042-045-011400-
South Central West Virginia

CITY           SKY/WX    TMP DP  RH WIND       PRES   REMARKS
BECKLEY        SUNNY     61  54  77 CALM      30.05R
BLUEFIELD      SUNNY     63  53  70 W6        30.07R
LEWISBURG      SUNNY     54  52  92 CALM      30.05R
$$

WVZ047-011400-
Northern Mountains of West Virginia

CITY           SKY/WX    TMP DP  RH WIND       PRES   REMARKS
ELKINS         FOG       53  53 100 CALM      30.04R VSB 1/4
$$

WVZ052-011400-
Eastern Panhandle of West Virginia

CITY           SKY/WX    TMP DP  RH WIND       PRES   REMARKS
MARTINSBURG    CLOUDY    61  58  90 NE5       30.03R FOG
PETERSBURG     CLOUDY   N/A N/A N/A CALM      30.04R FOG
$$


USA.gov is the U.S. government's official web portal to all federal, state and local government web resources and services.